Voltar ao catálogo

SL-12 R/B(2)

AtivoGEO
NORAD 20370·ROCKET BODY·🇷🇺 Russia

Lançado Dec 15, 1989 de Baikonur Cosmodrome

Loading…

TLE

AtualizadoSource: Space-Track

Época: Aug 31, 2026, 23:04 UTC

1 20370U 89098D   26243.96120964 -.00000165  00000-0  00000-0 0  9993
2 20370  13.5613 336.8529 0018112 197.4818 155.0060  0.97855524118664

Acompanhe SL-12 R/B(2) em tempo real com AllMySat

Download on the App Store